Hourly Weather Bolshoe Yurevo

Today, 30 July, Friday

Time Temperature Precipitation Wind Pressure Humidity
00:00 +20°C° 0.5 mm 2 mps 737 mmHg 85%
01:00 +19°C° 0.5 mm 2 mps 737 mmHg 89%
02:00 +20°C° 0.5 mm 1 mps 736 mmHg 93%
03:00 +20°C° 0.6 mm 1 mps 736 mmHg 94%
04:00 +20°C° 0.6 mm 1 mps 736 mmHg 95%
05:00 +20°C° 0.6 mm 1 mps 736 mmHg 96%
06:00 +21°C° 0 mm 1 mps 736 mmHg 92%
07:00 +21°C° 0 mm 2 mps 736 mmHg 89%
08:00 +22°C° 0 mm 3 mps 736 mmHg 85%
09:00 +22°C° 0 mm 3 mps 737 mmHg 81%
10:00 +24°C° 0 mm 3 mps 737 mmHg 77%
11:00 +23°C° 0 mm 4 mps 737 mmHg 73%
12:00 +25°C° 0 mm 4 mps 737 mmHg 70%
13:00 +26°C° 0 mm 4 mps 737 mmHg 66%
14:00 +26°C° 0 mm 5 mps 737 mmHg 63%
15:00 +26°C° 0 mm 5 mps 737 mmHg 61%
16:00 +27°C° 0 mm 4 mps 737 mmHg 58%
17:00 +27°C° 0 mm 4 mps 737 mmHg 56%
18:00 +25°C° 0 mm 4 mps 737 mmHg 62%
19:00 +22°C° 0 mm 3 mps 737 mmHg 69%
20:00 +20°C° 0 mm 3 mps 737 mmHg 75%
21:00 +19°C° 0 mm 3 mps 737 mmHg 78%
22:00 +18°C° 0 mm 3 mps 738 mmHg 80%
23:00 +18°C° 0 mm 3 mps 738 mmHg 82%

Tomorrow, 31 July, Saturday

Time Temperature Precipitation Wind Pressure Humidity
00:00 +17°C° 0 mm 2 mps 738 mmHg 80%
01:00 +17°C° 0 mm 2 mps 738 mmHg 79%
02:00 +17°C° 0 mm 2 mps 738 mmHg 77%
03:00 +17°C° 0 mm 2 mps 738 mmHg 76%
04:00 +17°C° 0 mm 2 mps 738 mmHg 75%
05:00 +17°C° 0 mm 2 mps 738 mmHg 74%
06:00 +19°C° 0 mm 3 mps 739 mmHg 71%
07:00 +20°C° 0 mm 3 mps 739 mmHg 67%
08:00 +22°C° 0 mm 3 mps 739 mmHg 64%
09:00 +23°C° 0 mm 4 mps 739 mmHg 59%
10:00 +26°C° 0 mm 4 mps 739 mmHg 53%
11:00 +27°C° 0 mm 5 mps 739 mmHg 48%
12:00 +28°C° 0 mm 5 mps 739 mmHg 45%
13:00 +28°C° 0 mm 5 mps 739 mmHg 42%
14:00 +29°C° 0 mm 5 mps 739 mmHg 40%
15:00 +28°C° 0 mm 5 mps 739 mmHg 43%
16:00 +28°C° 0 mm 4 mps 739 mmHg 46%
17:00 +27°C° 0 mm 3 mps 739 mmHg 50%
18:00 +26°C° 0 mm 3 mps 739 mmHg 55%
19:00 +24°C° 0 mm 2 mps 739 mmHg 61%
20:00 +21°C° 0 mm 2 mps 739 mmHg 67%
21:00 +21°C° 0 mm 2 mps 740 mmHg 67%
22:00 +20°C° 0 mm 2 mps 740 mmHg 67%
23:00 +20°C° 0 mm 2 mps 740 mmHg 67%

Day after tomorrow, 1 August, Sunday

Time Temperature Precipitation Wind Pressure Humidity
00:00 +20°C° 0 mm 3 mps 740 mmHg 68%
01:00 +19°C° 0 mm 3 mps 740 mmHg 69%
02:00 +19°C° 0 mm 3 mps 740 mmHg 71%
03:00 +19°C° 0 mm 3 mps 740 mmHg 71%
04:00 +19°C° 0 mm 3 mps 740 mmHg 71%
05:00 +19°C° 0 mm 3 mps 740 mmHg 72%
06:00 +21°C° 0 mm 4 mps 740 mmHg 67%
07:00 +23°C° 0 mm 4 mps 740 mmHg 63%
08:00 +26°C° 0 mm 4 mps 740 mmHg 58%
09:00 +28°C° 0 mm 5 mps 740 mmHg 53%
10:00 +29°C° 0 mm 5 mps 740 mmHg 49%
11:00 +32°C° 0 mm 6 mps 740 mmHg 44%
12:00 +32°C° 0 mm 6 mps 739 mmHg 42%
13:00 +33°C° 0 mm 6 mps 739 mmHg 40%
14:00 +33°C° 0 mm 5 mps 739 mmHg 39%
15:00 +32°C° 0 mm 5 mps 739 mmHg 42%
16:00 +32°C° 0 mm 5 mps 738 mmHg 45%
17:00 +30°C° 0 mm 4 mps 738 mmHg 47%
18:00 +28°C° 0.5 mm 4 mps 738 mmHg 59%
19:00 +25°C° 0.5 mm 3 mps 738 mmHg 70%
20:00 +23°C° 0.5 mm 2 mps 738 mmHg 82%
21:00 +21°C° 0.8 mm 2 mps 738 mmHg 86%
22:00 +21°C° 0.8 mm 2 mps 738 mmHg 89%
23:00 +20°C° 0.8 mm 2 mps 739 mmHg 93%

2 August, Monday

Time Temperature Precipitation Wind Pressure Humidity
00:00 +20°C° 0 mm 2 mps 739 mmHg 94%
01:00 +19°C° 0 mm 2 mps 738 mmHg 94%
02:00 +19°C° 0 mm 2 mps 738 mmHg 95%
03:00 +20°C° 0 mm 1 mps 738 mmHg 95%
04:00 +20°C° 0 mm 1 mps 738 mmHg 94%
05:00 +18°C° 0 mm 0 mps 738 mmHg 94%
06:00 +20°C° 0 mm 0 mps 738 mmHg 87%
07:00 +23°C° 0 mm 1 mps 738 mmHg 81%
08:00 +25°C° 0 mm 1 mps 738 mmHg 75%
09:00 +26°C° 0 mm 2 mps 738 mmHg 69%
10:00 +28°C° 0 mm 2 mps 738 mmHg 63%
11:00 +29°C° 0 mm 3 mps 738 mmHg 58%
12:00 +29°C° 0 mm 4 mps 737 mmHg 56%
13:00 +30°C° 0 mm 5 mps 737 mmHg 55%
14:00 +32°C° 0 mm 6 mps 737 mmHg 54%
15:00 +32°C° 0 mm 5 mps 736 mmHg 53%
16:00 +30°C° 0 mm 5 mps 736 mmHg 53%
17:00 +30°C° 0 mm 5 mps 735 mmHg 53%
18:00 +27°C° 1.6 mm 4 mps 735 mmHg 66%
19:00 +23°C° 1.6 mm 4 mps 735 mmHg 80%
20:00 +20°C° 1.6 mm 3 mps 736 mmHg 94%
21:00 +20°C° 0.7 mm 3 mps 736 mmHg 94%
22:00 +19°C° 0.7 mm 2 mps 736 mmHg 95%
23:00 +20°C° 0.7 mm 1 mps 736 mmHg 96%

3 August, Tuesday

Time Temperature Precipitation Wind Pressure Humidity
00:00 +19°C° 0.1 mm 2 mps 736 mmHg 96%
01:00 +19°C° 0.1 mm 3 mps 737 mmHg 96%
02:00 +19°C° 0.1 mm 4 mps 737 mmHg 96%
03:00 +19°C° 0.1 mm 4 mps 737 mmHg 96%
04:00 +18°C° 0.1 mm 4 mps 737 mmHg 96%
05:00 +18°C° 0.1 mm 4 mps 738 mmHg 95%
06:00 +18°C° 0 mm 4 mps 738 mmHg 92%
07:00 +18°C° 0 mm 4 mps 739 mmHg 88%
08:00 +18°C° 0 mm 4 mps 739 mmHg 85%
09:00 +20°C° 0 mm 4 mps 740 mmHg 76%
10:00 +21°C° 0 mm 4 mps 740 mmHg 66%
11:00 +22°C° 0 mm 4 mps 740 mmHg 57%
12:00 +23°C° 0 mm 4 mps 741 mmHg 56%
13:00 +23°C° 0 mm 4 mps 741 mmHg 54%
14:00 +25°C° 0 mm 4 mps 741 mmHg 53%
15:00 +24°C° 0 mm 3 mps 741 mmHg 56%
16:00 +24°C° 0 mm 3 mps 741 mmHg 60%
17:00 +22°C° 0 mm 3 mps 741 mmHg 64%
18:00 +21°C° 0 mm 2 mps 742 mmHg 67%
19:00 +20°C° 0 mm 2 mps 742 mmHg 71%
20:00 +19°C° 0 mm 2 mps 742 mmHg 74%
21:00 +18°C° 0 mm 2 mps 743 mmHg 75%
22:00 +17°C° 0 mm 2 mps 743 mmHg 76%
23:00 +17°C° 0 mm 2 mps 743 mmHg 76%

4 August, Wednesday

Time Temperature Precipitation Wind Pressure Humidity
00:00 +16°C° 0 mm 2 mps 743 mmHg 77%
01:00 +15°C° 0 mm 2 mps 744 mmHg 78%
02:00 +14°C° 0 mm 2 mps 744 mmHg 79%
03:00 +15°C° 0 mm 2 mps 744 mmHg 78%
04:00 +15°C° 0 mm 2 mps 744 mmHg 76%
05:00 +15°C° 0 mm 2 mps 745 mmHg 75%
06:00 +17°C° 0 mm 2 mps 745 mmHg 69%
07:00 +18°C° 0 mm 2 mps 745 mmHg 63%
08:00 +20°C° 0 mm 2 mps 745 mmHg 57%
09:00 +21°C° 0 mm 2 mps 745 mmHg 52%
10:00 +24°C° 0 mm 2 mps 746 mmHg 47%
11:00 +25°C° 0 mm 2 mps 746 mmHg 42%
12:00 +25°C° 0 mm 2 mps 746 mmHg 42%
13:00 +25°C° 0 mm 2 mps 746 mmHg 43%
14:00 +25°C° 0 mm 3 mps 746 mmHg 43%
15:00 +25°C° 0 mm 2 mps 746 mmHg 46%
16:00 +24°C° 0 mm 1 mps 745 mmHg 49%
17:00 +24°C° 0 mm 1 mps 745 mmHg 52%
18:00 +22°C° 0 mm 1 mps 745 mmHg 57%
19:00 +20°C° 0 mm 1 mps 745 mmHg 62%
20:00 +19°C° 0 mm 1 mps 746 mmHg 67%
21:00 +18°C° 0 mm 1 mps 746 mmHg 68%
22:00 +17°C° 0 mm 2 mps 746 mmHg 69%
23:00 +16°C° 0 mm 2 mps 746 mmHg 70%
Show more

We Need Your Consent

Meteoprog and our Service Providers may store and access personal data such as cookies, device identifiers or other similar technologies on your device and process such data to personalise content and ads, as well as provide social media features and to analyse the traffic.

  • Store and/or access information on your device

    Cookies, device identifiers or other information can be stored or accessed on your device for the purposes indicated above.

  • Personalised ads and content, ad and content measurement, audience insights, and products development

    Ads and content can be personalised based on a profile. More data can be added to better personalise ads and content. Ad and content performance can be measured. Insights about the audience who saw the ads and content can be derived. Such data can be used to develop or improve user’s experience, systems and software.

By clicking ‘I Agree’ you will allow the use of indicated cookies, device identifiers, web beacons or other similar technologies. Your settings can be changed in the browser on your device.

For certain purposes, legitimate interests may be relied on, rather than consent. You can read more about this in our Privacy and Cookie Policy.